Hourly Data Report for October 22, 2014

All times are specified in Local Standard Time (LST). Add 1 hour to adjust for Daylight Saving Time where and when it is observed.

HALL BEACH A
NUNAVUT

68°46'33.000" N
81°14'33.000" W
9.10 m
2402354
71293
YUX

Download Data

Hourly Data (October 2014)
Hourly Data Report for October 22, 2014
Temp Definition
°C
Dew Point Temp Definition
°C
Rel Hum Definition
%
Wind Dir Definition
10's deg

Wind Spd Definition
km/h
Visibility Definition
km
Stn Press Definition
kPa
Hmdx Definition


Wind Chill Definition


Weather Definition


TIME
00:00 Legend Double Dagger -11.8 -12.7 93 33 15 3.2 100.27   -19 Snow
01:00 Legend Double Dagger -11.1 -11.9 94 34 15 11.3 100.24   -18 Snow
02:00 Legend Double Dagger -9.2 -9.9 95 2 13 9.7 100.21   -15 Snow
03:00 Legend Double Dagger -8.9 -9.6 95 2 17 14.5 100.21   -16 Snow
04:00 Legend Double Dagger -8.3 -9.0 95 36 22 16.1 100.23   -16 Snow
05:00 Legend Double Dagger -8.3 -9.0 95 35 26 2.4 100.26   -17 Snow
06:00 Legend Double Dagger -8.9 -9.6 95 35 32 2.0 100.32   -18 Snow
07:00 Legend Double Dagger -10.0 -10.8 94 35 30 8.1 100.36   -20 Fog
08:00 Legend Double Dagger -10.1 -10.9 94 34 28 3.6 100.43   -19 Snow
09:00 Legend Double Dagger -10.7 -11.5 94 33 24 16.1 100.48   -19 Snow
10:00 Legend Double Dagger -8.7 -9.4 95 35 34 16.1 100.51   -18 Snow
11:00 Legend Double Dagger -9.9 -10.7 94 34 37 11.3 100.60   -20 Snow
12:00 Legend Double Dagger -13.9 -15.1 91 34 28 16.1 100.73   -24 LegendNANA
13:00 Legend Double Dagger -14.3 -15.5 91 34 26 16.1 100.86   -24 LegendNANA
14:00 Legend Double Dagger -15.4 -16.7 90 34 32 16.1 100.94   -27 LegendNANA
15:00 Legend Double Dagger -17.4 -19.1 87 33 26 16.1 101.03   -28 LegendNANA
16:00 Legend Double Dagger -18.9 -20.8 85 31 30 16.1 101.14   -31 LegendNANA
17:00 Legend Double Dagger -20.3 -22.3 84 32 35 16.1 101.24   -34 LegendNANA
18:00 Legend Double Dagger -21.2 -23.5 82 31 32 16.1 101.35   -34 LegendNANA
19:00 Legend Double Dagger -21.8 -24.0 83 31 32 16.1 101.41   -35 LegendNANA
20:00 Legend Double Dagger -22.3 -24.6 82 31 39 4.8 101.42   -37 Fog
21:00 Legend Double Dagger -22.9 -25.0 83 31 41 6.4 101.49   -38 Fog
22:00 Legend Double Dagger -23.2 -25.5 82 31 37 16.1 101.51   -38 LegendNANA
23:00 Legend Double Dagger -23.9 -26.3 81 30 26 16.1 101.58   -37 LegendNANA

Notes on Data Quality.

Legend

  • E = Estimated
  • M = Missing
  • NA = Not Available
  • ‡ = Partner data that is not subject to review by the National Climate Archives
Date modified: